Hourly Data Report for March 02, 2019

MAYO A
YUKON TERRITORY
Current Station Operator: NAVCAN

63°36'59.000" N
135°52'06.000" W
503.80 m
2100701
71965
YMA

Download Data

Hourly Data (March 2019)
Hourly Data Report for March 2, 2019
TIME
LST
Temp Definition
°C
Dew Point Definition
°C
Rel Hum Definition
%
Precip. Amount Definition
mm

Wind Dir Definition
10's deg

Wind Spd Definition
km/h
Visibility Definition
km
Stn Press Definition
kPa
Hmdx Definition


Wind Chill Definition


Weather Definition


00:00 -11.7 -16.2 69   1 15 32.2 96.98   -19 LegendNANA
01:00 -12.5 -16.8 71   1 17 32.2 97.01   -20 Clear
02:00 -13.1 -17.0 73   3 11 32.2 97.06   -19 LegendNANA
03:00 -12.8 -16.9 72   1 17 32.2 97.08   -21 LegendNANA
04:00 -13.4 -17.0 75   36 18 32.2 97.09   -22 Clear
05:00 -13.7 -17.4 74   1 15 32.2 97.15   -21 LegendNANA
06:00
07:00 -13.8 -17.5 74   1 18 32.2 97.21   -22 Clear
08:00 -15.1 -18.8 74   2 22 32.2 97.22   -25 LegendNANA
09:00 -13.8 -18.0 71   1 24 32.2 97.23   -23 LegendNANA
10:00 -13.4 -18.2 68   1 23 32.2 97.28   -23 Clear
11:00 -11.0 -17.3 60   3 10 32.2 97.30   -16 LegendNANA
12:00 -9.2 -19.5 44   9 16 32.2 97.32   -16 LegendNANA
13:00 -8.2 -19.8 39   10 21 32.2 97.32   -16 Clear
14:00 -8.2 -19.5 40   9 17 32.2 97.31   -15 LegendNANA
15:00 -7.5 -19.9 37   9 23 32.2 97.30   -15 LegendNANA
16:00 -7.1 -21.0 32   10 16 32.2 97.30   -13 Clear
17:00 -7.2 -20.7 33   10 15 32.2 97.30   -13 LegendNANA
18:00 -8.1 -20.7 36   10 10 32.2 97.30   -13 LegendNANA
19:00 -13.7 -20.1 59   30 4 32.2 97.34   -16 Clear
20:00 -16.2 -22.5 59   2 7 32.2 97.40   -21 LegendNANA
21:00 -13.4 -20.3 57   1 14 32.2 97.44   -21 LegendNANA
22:00 -14.6 -20.7 60   36 12 32.2 97.49   -21 Clear
23:00 -15.4 -21.5 60   36 14 32.2 97.54   -23 LegendNANA

Notes on Data Quality.

Legend

  • E = Estimated
  • M = Missing
  • NA = Not Available*
  • [empty] = Indicates an unobserved value
Date modified: